Regional Weather Roundup
Issued by NWS

Home | Current Version | Previous Version | Text Only | Print | Product List | Glossary On
Versions: 1 2 3 4 5 6 7 8 9 10 11 12 13 14 15 16 17 18 19 20 21 22 23 24 25 26 27 28 29 30 31 32 33 34 35 36 37 38 39 40 41 42 43 44 45 46 47 48 49 50
000
ASUS43 KMKX 020421
RWRWI

WISCONSIN REGIONAL WEATHER ROUNDUP
NATIONAL WEATHER SERVICE MILWAUKEE/SULLIVAN WI
1100 PM CDT FRI AUG 01 2014

NOTE: "FAIR" INDICATES FEW OR NO CLOUDS BELOW 12,000 FEET WITH NO
SIGNIFICANT WEATHER AND/OR OBSTRUCTIONS TO VISIBILITY.

WIZ001-002-006>008-014>016-023>028-020500-
NORTHWEST WISCONSIN

CITY           SKY/WX    TMP DP  RH WIND       PRES   REMARKS
SUPERIOR ARPT  CLEAR     53  51  94 N3        30.10S
ASHLAND        CLOUDY    59  58  96 CALM      30.11R
HAYWARD        CLEAR     62  59  90 CALM      30.11R
SIREN          CLEAR     64  61  90 CALM      30.08F
RICE LAKE      CLEAR     63  61  91 CALM      30.11F
LADYSMITH      CLEAR     63  58  83 E6        30.13R
EAU CLAIRE     CLEAR     68  64  87 S3        30.09S
MENOMONIE      CLEAR     66  61  84 E3        30.09S
NEW RICHMOND   MOCLDY    68  61  77 CALM      30.09F
OSCEOLA        PTCLDY    69  62  78 SE3       30.11S
$$

WIZ003>005-009-010-017-018-020500-
NORTH CENTRAL WISCONSIN

CITY           SKY/WX    TMP DP  RH WIND       PRES   REMARKS
WOODRUFF       CLEAR     57  46  65 CALM      30.13S
RHINELANDER    CLEAR     57  53  86 CALM      30.14R
EAGLE RIVER    CLEAR     55  55 100 CALM      30.13S
LAND O LAKES   CLEAR     52  52  99 CALM      30.15R FOG
PHILLIPS       CLEAR     57  55  95 CALM      30.12S
TOMAHAWK       CLEAR     54  53  94 CALM      30.13S FOG
MEDFORD        CLEAR     57  57  99 CALM      30.13S FOG
MERRILL        CLEAR     57  57  98 CALM      30.12S FOG
$$

WIZ029-030-035-036-043>047-020500-
CENTRAL WISCONSIN

CITY           SKY/WX    TMP DP  RH WIND       PRES   REMARKS
WAUSAU         CLEAR     62  60  93 CALM      30.10S
MOSINEE        CLEAR     59  59 100 CALM      30.13S
MARSHFIELD     CLEAR     60  58  92 N6        30.11S
STEVENS POINT  CLEAR     56  55  97 CALM      30.12S
WAUPACA        CLEAR     59  57  91 CALM      30.12R
WAUTOMA        CLEAR     56  56 100 CALM      30.11R
WISC RAPIDS    CLEAR     58  56  93 CALM      30.11S
CAMP DOUGLAS   PTCLDY    57  57 100 CALM      30.10R
$$

WIZ011>013-019>022-031-037>040-048>050-020500-
NORTHEAST WISCONSIN

CITY           SKY/WX    TMP DP  RH WIND       PRES   REMARKS
ANTIGO         CLEAR     58  56  91 CALM      30.13S
STURGEON BAY   CLEAR     61  57  88 CALM      30.09F
GREEN BAY      CLEAR     63  62  97 CALM      30.09S
MANITOWOC      PTCLDY    63  61  93 W3        30.09S
APPLETON       MOCLDY    61  59  94 NW6       30.11R
CLINTONVILLE   CLEAR     59  55  88 CALM      30.10S
OSHKOSH        PTCLDY    64  59  83 CALM      30.10R HAZE
$$

WIZ032>034-041-042-053>061-020500-
SOUTHWEST WISCONSIN

CITY           SKY/WX    TMP DP  RH WIND       PRES   REMARKS
LA CROSSE      PTCLDY    70  58  65 SE6       30.09S
SPARTA         MOCLDY    62  55  79 CALM      30.11R
VIROQUA        FAIR      64  54  70 CALM      30.12R
BOSCOBEL       PTCLDY    61  53  75 CALM      30.10F
PRAIRIE DU CHI CLEAR     68  53  58 CALM      30.11R
PLATTEVILLE    FAIR      64  55  73 SE10      30.14R
$$

WIZ056-057-062-063-064-067-068-020500-
SOUTH CENTRAL WISCONSIN

CITY           SKY/WX    TMP DP  RH WIND       PRES   REMARKS
BARABOO/DELLS  MOCLDY    60  56  87 SE3       30.10R
LONE ROCK      MOCLDY    65  58  78 NW3       30.10S
WATERTOWN      PTCLDY    61  58  90 W3        30.10S
MADISON        MOCLDY    65  58  78 S13       30.11F
MIDDLETON      MOCLDY    65  57  74 N7        30.13R
MONROE         MOCLDY    64  55  72 SE8       30.13S
JANESVILLE     MOCLDY    63  55  77 W7        30.11F
$$

WIZ051-052-058>065-066-070>072-020500-
SOUTHEAST WISCONSIN

CITY           SKY/WX    TMP DP  RH WIND       PRES   REMARKS
MILWAUKEE      MOCLDY    65  54  67 CALM      30.10S
WAUKESHA       PTCLDY    59  54  82 S6        30.11F
MILWAUKEE/TIMM MOCLDY    59  54  82 CALM      30.11S
RACINE         MOCLDY    62  56  80 N3        30.10F
BURLINGTON     MOCLDY    57  55  95 NW6       30.10S
KENOSHA        CLOUDY    61  57  87 S5        30.08F
FOND DU LAC    MOCLDY    62  56  80 W5        30.11R
SHEBOYGAN      PTCLDY    63  58  83 W5        30.10R
WEST BEND      MOCLDY    61  54  77 CALM      30.10S
JUNEAU         PTCLDY    60  53  78 SW5       30.12S
$$

LSZ147-162-020500-
LAKE SUPERIOR

STATION/POSITION TIME  TEMP    WIND        PRES    WAVE
                       AIR SEA DIR/SP/G            HT/PER
                 (UTC) (F)     (DEG/KT/KT) (MB)    (FT/S)
W MID LAKE BUOY  0350   49 47   10/  4/  6 1019.6R   0
PORT WING        0300   59      30/  8/  9 1019.0R
SAXON HARBOR     0300          180/  3/  5 1019.0R
$$

LMZ867-665-643>646-020500-
LAKE MICHIGAN

STATION/POSITION TIME  TEMP    WIND        PRES    WAVE
                       AIR SEA DIR/SP/G            HT/PER
                 (UTC) (F)     (DEG/KT/KT) (MB)    (FT/S)
N MID LAKE BUOY  0350   63 60   CALM  /  2 1018.8F   0
NORTHPORT PIER   0300   64      60/  5/  5 1019.3R
SISTER BAY       0326   61        CALM       N/A
ALGOMA LAKESHORE 0321             CALM       N/A
KEWAUNEE LAKESHO 0300                      1017.9R
SHEBOYGAN LAKESH 0400   69     240/  4/  5 1018.8R
PORT WASHINGTON  0340   67     260/  8/ 11 1019.0F
ATWATER BUOY     0400   66     210/  6     1019.8R
MILWAUKEE LAKESH 0400   69     230/  8/  9   N/A
S MID LAKE BUOY  0350   66 65  240/  4/  6 1019.1S   0
KENOSHA   LAKESH 0400   65     170/  6/  7 1018.6R
$$

TC  - TEMPERATURE IN CELSIUS
VSB - VISIBILITY IN STATUTE MILES
WCI - WIND CHILL INDEX
HX  - HEAT INDEX




USA.gov is the U.S. government's official web portal to all federal, state and local government web resources and services.